User: anonymous   Login
Location: Bridgewater Hill Observatory
(43.5992°N, 72.6989°W)
Time: 09:32:47
(UTC-04:00)
Language:

Cosmos 1452 Rocket - Orbit

View from above orbital plane
View from above orbital plane
View from above satellite
View from above satellite

Ground track
Ground track

The orbit data is extracted from the following two-line orbital elements,

1 13992U 83031B   14296.63659632  .00000329  00000-0  12262-3 0  5447
2 13992 074.0538 341.4577 0005381 217.6476 294.6667 14.35795195649923
Epoch (UTC): 23 October 2014 15:16:41
Eccentricity: 0.0005381
inclination: 74.0538°
perigee height: 768 km
apogee height: 776 km
right ascension of ascending node: 341.4577°
argument of perigee: 217.6476°
revolutions per day: 14.35795195
mean anomaly at epoch: 294.6667°
orbit number at epoch: 64992

The dashed part of the orbit path shows where the satellite is in the earth's shadow,  

DLR